Terminal Aerodrome Forecast
Issued by NWS

Home | Current Version | Previous Version | Text Only | Print | Product List | Glossary On
Versions: 1 2 3 4 5 6 7 8 9 10 11 12 13 14 15 16 17 18 19 20 21 22 23
496
FTUS41 KCAR 192320
TAFFVE
TAF
KFVE 192320Z 2000/2024 15006KT 6SM -DZ VCSH BKN010
     FM200200 16005KT P6SM VCSH BKN003
     FM200600 20006KT 2SM BR VCSH OVC001
     FM201000 22005KT P6SM VCSH OVC008
     FM201400 30008KT P6SM VCSH BKN040=

USA.gov is the U.S. government's official web portal to all federal, state and local government web resources and services.